Tracking 27405 objects as of 1-Jun-2023
HD Live streaming from Space Station
objects crossing your sky now

SL-8 R/B

Track SL-8 R/B now!
10-day predictions


NORAD ID: 4800
Int'l Code: 1970-108B
Perigee: 968.2 km
Apogee: 982.5 km
Inclination: 74.0 °
Period: 104.4 minutes
Semi major axis: 7346 km
RCS: 4.6851 m2 (large)
Launch date: December 12, 1970
Source: Commonwealth of Independent States (former USSR) (CIS)
Launch site: PLESETSK MISSILE AND SPACE COMPLEX (PKMTR)

Note: This is a ROCKET BODY
Your satellite tracking list
Your tracking list is empty




NASA's NSSDC Master Catalog

Two Line Element Set (TLE):
1 04800U 70108B   23152.28317621  .00000003  00000-0  24964-4 0  9993
2 04800  74.0224 349.9021 0009762 298.5807  61.4332 13.78777468638817
Source of the keplerian elements: AFSPC